Regional Weather Roundup
Issued by NWS

Home | Current Version | Previous Version | Graphics & Text | Print | Product List | Glossary On
Versions: 1 2 3 4 5 6 7 8 9 10 11 12 13 14 15 16 17 18 19 20 21 22 23 24 25 26 27 28 29 30 31 32 33 34 35 36 37 38 39 40 41 42 43 44 45 46 47 48 49 50
000
ASUS43 KLMK 050302
RWRKY
KENTUCKY REGIONAL WEATHER ROUNDUP
NATIONAL WEATHER SERVICE LOUISVILLE KY
1100 PM EDT WED MAY 04 2016

NOTE "FAIR" INDICATES FEW OR NO CLOUDS BELOW 12,000 FEET
WITH NO SIGNIFICANT WEATHER AND/OR OBSTRUCTIONS TO VISIBILITY.

KYZ001>023-026-027-061>063-070>075-050400-
WESTERN AND SOUTH CENTRAL KENTUCKY

CITY           SKY/WX    TMP DP  RH WIND       PRES   REMARKS
PADUCAH        PTCLDY    55  41  59 N6        29.88R
HENDERSON      CLOUDY    55  39  54 NW8       29.86S
OWENSBORO      CLOUDY    55  41  59 N13       29.86R
HOPKINSVILLE   NOT AVBL
BOWLING GREEN  PTCLDY    55  41  59 NW5       29.84R
GLASGOW        NOT AVBL
$$

KYZ024-025-028>034-038-045-046-053-050400-
NORTH CENTRAL KENTUCKY

CITY           SKY/WX    TMP DP  RH WIND       PRES   REMARKS
LOUISVILLE/SDF PTCLDY    52  38  58 NW10      29.81R
LOUISVILLE/LOU PTCLDY    52  39  61 NW10      29.81R
FORT KNOX      NOT AVBL
$$

KYZ035>037-039>044-047>052-055>060-089>105-050400-
NORTHEAST KENTUCKY

CITY           SKY/WX    TMP DP  RH WIND       PRES   REMARKS
LEXINGTON      PTCLDY    48  38  68 NW10      29.79R
COVINGTON      PTCLDY    45  34  65 NW10      29.77R
FRANKFORT      MOCLDY    50  37  61 NW9       29.79R
$$

KYZ054-064>069-076>088-106>120-050400-
SOUTHEAST KENTUCKY

CITY           SKY/WX    TMP DP  RH WIND       PRES   REMARKS
JACKSON        LGT RAIN  47  42  83 NW5       29.76R
LONDON         CLOUDY    48  41  76 N5        29.76R
SOMERSET       NOT AVBL
MIDDLESBORO    NOT AVBL
MONTICELLO     RAIN      48  45  89 N17G31    29.83R
$$





USA.gov is the U.S. government's official web portal to all federal, state and local government web resources and services.